owner,sensor,date,latitude,longitude,vertical_datum,wind_speed,wind_to_direction,wind_speed_of_gust,qcFlag 
TABS,ioos:station:wmo:42046:1,2014-09-01T00:00:00Z,27.8903,-94.0367,4.0,5.137012751,110.8697199,6.1,'11111222,11111222,11111222' 
TABS,ioos:station:wmo:42046:1,2014-09-01T00:30:00Z,27.8903,-94.0367,4.0,5.092003535,120.4430745,6.01,'11111222,11111222,11111222' 
TABS,ioos:station:wmo:42046:1,2014-09-01T01:00:00Z,27.8903,-94.0367,4.0,5.445383366,118.4008789,6.67,'11111222,11111222,11111222' 
TABS,ioos:station:wmo:42046:1,2014-09-01T01:30:00Z,27.8903,-94.0367,4.0,6.232856488,124.6082854,7.16,'11111222,11111222,11111222' 
TABS,ioos:station:wmo:42046:1,2014-09-01T02:00:00Z,27.8903,-94.0367,4.0,6.631998191,124.4332225,7.7,'11111222,11111222,11111222' 
TABS,ioos:station:wmo:42046:1,2014-09-01T02:30:00Z,27.8903,-94.0367,4.0,6.280398077,108.0891336,9.39,'11111222,11111222,11111222' 
TABS,ioos:station:wmo:42046:1,2014-09-01T03:00:00Z,27.8903,-94.0367,4.0,7.122204715,126.4358171,8.33,'11111222,11111222,11111222' 
TABS,ioos:station:wmo:42046:1,2014-09-01T03:30:00Z,27.8903,-94.0367,4.0,6.040347672,133.6587425,7.43,'11111222,11111222,11111222' 
TABS,ioos:station:wmo:42046:1,2014-09-01T04:00:00Z,27.8903,-94.0367,4.0,6.055782361,124.84509,7.92,'11111222,11111222,11111222' 
TABS,ioos:station:wmo:42046:1,2014-09-01T04:30:00Z,27.8903,-94.0367,4.0,6.700007463,128.2728314,7.89,'11111222,11111222,11111222' 
TABS,ioos:station:wmo:42046:1,2014-09-01T05:00:00Z,27.8903,-94.0367,4.0,7.93227584,128.2427532,9.4,'11111222,11111222,11111222' 
TABS,ioos:station:wmo:42046:1,2014-09-01T05:30:00Z,27.8903,-94.0367,4.0,6.9401585,131.8463981,8.39,'11111222,11111222,11111222' 
TABS,ioos:station:wmo:42046:1,2014-09-01T06:00:00Z,27.8903,-94.0367,4.0,6.413649507,135.4425004,7.5,'11111222,11111222,11111222' 
TABS,ioos:station:wmo:42046:1,2014-09-01T06:30:00Z,27.8903,-94.0367,4.0,6.971728624,131.3949902,7.89,'11111222,11111222,11111222' 
TABS,ioos:station:wmo:42046:1,2014-09-01T07:00:00Z,27.8903,-94.0367,4.0,6.307535176,135.3857066,7.25,'11111222,11111222,11111222' 
TABS,ioos:station:wmo:42046:1,2014-09-01T07:30:00Z,27.8903,-94.0367,4.0,5.883740307,134.1739935,6.66,'11111222,11111222,11111222' 
TABS,ioos:station:wmo:42046:1,2014-09-01T08:00:00Z,27.8903,-94.0367,4.0,6.075236621,139.0716691,7.12,'11111222,11111222,11111222' 
TABS,ioos:station:wmo:42046:1,2014-09-01T08:30:00Z,27.8903,-94.0367,4.0,5.62896971,137.9525699,6.76,'11111222,11111222,11111222' 
TABS,ioos:station:wmo:42046:1,2014-09-01T09:00:00Z,27.8903,-94.0367,4.0,5.390083487,143.4492954,6.37,'11111222,11111222,11111222' 
TABS,ioos:station:wmo:42046:1,2014-09-01T09:30:00Z,27.8903,-94.0367,4.0,4.942195868,143.6405046,5.84,'11111222,11111222,11111222' 
TABS,ioos:station:wmo:42046:1,2014-09-01T10:00:00Z,27.8903,-94.0367,4.0,4.346883941,140.4141256,5.86,'11111222,11111222,11111222' 
TABS,ioos:station:wmo:42046:1,2014-09-01T10:30:00Z,27.8903,-94.0367,4.0,4.992674634,135.8118145,6.03,'11111222,11111222,11111222' 
TABS,ioos:station:wmo:42046:1,2014-09-01T11:00:00Z,27.8903,-94.0367,4.0,5.098431131,129.7483443,6.26,'11111222,11111222,11111222' 
TABS,ioos:station:wmo:42046:1,2014-09-01T11:30:00Z,27.8903,-94.0367,4.0,5.130691961,131.2072603,5.84,'11111222,11111222,11111222' 
TABS,ioos:station:wmo:42046:1,2014-09-01T12:00:00Z,27.8903,-94.0367,4.0,4.827007354,129.9578764,5.52,'11111222,11111222,11111222' 
TABS,ioos:station:wmo:42046:1,2014-09-01T12:30:00Z,27.8903,-94.0367,4.0,4.943136656,128.0989671,5.83,'11111222,11111222,11111222' 
TABS,ioos:station:wmo:42046:1,2014-09-01T13:00:00Z,27.8903,-94.0367,4.0,5.451834554,118.9630881,7.16,'11111222,11111222,11111222' 
TABS,ioos:station:wmo:42046:1,2014-09-01T13:30:00Z,27.8903,-94.0367,4.0,4.188520025,114.5462075,5.17,'11111222,11111222,11111222' 
TABS,ioos:station:wmo:42046:1,2014-09-01T14:00:00Z,27.8903,-94.0367,4.0,4.808326112,135.0003157,6.08,'11111222,11111222,11111222' 
TABS,ioos:station:wmo:42046:1,2014-09-01T14:30:00Z,27.8903,-94.0367,4.0,4.978112092,134.6747758,5.8,'11111222,11111222,11111222' 
TABS,ioos:station:wmo:42046:1,2014-09-01T15:00:00Z,27.8903,-94.0367,4.0,4.657595946,132.38986,5.9,'11111222,11111222,11111222' 
TABS,ioos:station:wmo:42046:1,2014-09-01T15:30:00Z,27.8903,-94.0367,4.0,6.303284858,129.9804738,7.03,'11111222,11111222,11111222' 
TABS,ioos:station:wmo:42046:1,2014-09-01T16:00:00Z,27.8903,-94.0367,4.0,5.820317861,139.1107198,6.69,'11111222,11111222,11111222' 
TABS,ioos:station:wmo:42046:1,2014-09-01T16:30:00Z,27.8903,-94.0367,4.0,5.664432893,141.4510713,6.3,'11111222,11111222,11111222' 
TABS,ioos:station:wmo:42046:1,2014-09-01T17:00:00Z,27.8903,-94.0367,4.0,5.491784774,145.7604319,6.36,'11111222,11111222,11111222' 
TABS,ioos:station:wmo:42046:1,2014-09-01T17:30:00Z,27.8903,-94.0367,4.0,5.678424077,135.6424567,6.43,'11111222,11111222,11111222' 
TABS,ioos:station:wmo:42046:1,2014-09-01T18:00:00Z,27.8903,-94.0367,4.0,5.542923416,144.9913357,6.63,'11111222,11111222,11111222' 
TABS,ioos:station:wmo:42046:1,2014-09-01T18:30:00Z,27.8903,-94.0367,4.0,5.819364226,139.8795781,7.14,'11111222,11111222,11111222' 
TABS,ioos:station:wmo:42046:1,2014-09-01T19:00:00Z,27.8903,-94.0367,4.0,5.032305635,137.4968569,5.99,'11111222,11111222,11111222' 
TABS,ioos:station:wmo:42046:1,2014-09-01T19:30:00Z,27.8903,-94.0367,4.0,4.717170762,139.5571037,5.53,'11111222,11111222,11111222' 
TABS,ioos:station:wmo:42046:1,2014-09-01T20:00:00Z,27.8903,-94.0367,4.0,6.008161116,142.7107979,7.0,'11111222,11111222,11111222' 
TABS,ioos:station:wmo:42046:1,2014-09-01T20:30:00Z,27.8903,-94.0367,4.0,6.240576896,146.7685771,7.09,'11111222,11111222,11111222' 
TABS,ioos:station:wmo:42046:1,2014-09-01T21:00:00Z,27.8903,-94.0367,4.0,6.31838587,145.7066025,7.55,'11111222,11111222,11111222' 
TABS,ioos:station:wmo:42046:1,2014-09-01T21:30:00Z,27.8903,-94.0367,4.0,5.722464504,145.3937917,6.63,'11111222,11111222,11111222' 
TABS,ioos:station:wmo:42046:1,2014-09-01T22:00:00Z,27.8903,-94.0367,4.0,6.230802517,151.0081949,6.99,'11111222,11111222,11111222' 
TABS,ioos:station:wmo:42046:1,2014-09-01T22:30:00Z,27.8903,-94.0367,4.0,6.295657233,155.3077596,7.18,'11111222,11111222,11111222' 
TABS,ioos:station:wmo:42046:1,2014-09-01T23:00:00Z,27.8903,-94.0367,4.0,8.299807227,139.5936894,10.35,'11111222,11111222,11111222' 
TABS,ioos:station:wmo:42046:1,2014-09-01T23:30:00Z,27.8903,-94.0367,4.0,7.093412437,141.3531072,8.27,'11111222,11111222,11111222' 
TABS,ioos:station:wmo:42046:1,2014-09-02T00:00:00Z,27.8903,-94.0367,4.0,7.40201324,143.2387668,8.67,'11111222,11111222,11111222' 
TABS,ioos:station:wmo:42046:1,2014-09-02T00:30:00Z,27.8903,-94.0367,4.0,6.006280047,142.5771116,7.13,'11111222,11111222,11111222' 
TABS,ioos:station:wmo:42046:1,2014-09-02T01:00:00Z,27.8903,-94.0367,4.0,7.145746987,144.3973694,8.31,'11111222,11111222,11111222' 
TABS,ioos:station:wmo:42046:1,2014-09-02T01:30:00Z,27.8903,-94.0367,4.0,7.25497071,135.2236894,8.54,'11111222,11111222,11111222' 
TABS,ioos:station:wmo:42046:1,2014-09-02T02:00:00Z,27.8903,-94.0367,4.0,6.998185479,141.148698,8.43,'11111222,11111222,11111222' 
TABS,ioos:station:wmo:42046:1,2014-09-02T02:30:00Z,27.8903,-94.0367,4.0,6.976890425,140.5837775,8.44,'11111222,11111222,11111222' 
TABS,ioos:station:wmo:42046:1,2014-09-02T03:00:00Z,27.8903,-94.0367,4.0,7.859185708,140.6801189,9.07,'11111222,11111222,11111222' 
TABS,ioos:station:wmo:42046:1,2014-09-02T03:30:00Z,27.8903,-94.0367,4.0,7.898012408,137.3606281,9.15,'11111222,11111222,11111222' 
TABS,ioos:station:wmo:42046:1,2014-09-02T04:00:00Z,27.8903,-94.0367,4.0,7.323455469,141.9880806,8.49,'11111222,11111222,11111222' 
TABS,ioos:station:wmo:42046:1,2014-09-02T04:30:00Z,27.8903,-94.0367,4.0,7.696966935,144.0385959,8.7,'11111222,11111222,11111222' 
TABS,ioos:station:wmo:42046:1,2014-09-02T05:00:00Z,27.8903,-94.0367,4.0,6.835115215,154.7099142,8.46,'11111222,11111222,11111222' 
TABS,ioos:station:wmo:42046:1,2014-09-02T05:30:00Z,27.8903,-94.0367,4.0,6.295347488,147.8501921,7.43,'11111222,11111222,11111222' 
TABS,ioos:station:wmo:42046:1,2014-09-02T06:00:00Z,27.8903,-94.0367,4.0,5.937844727,141.7021647,6.84,'11111222,11111222,11111222' 
TABS,ioos:station:wmo:42046:1,2014-09-02T06:30:00Z,27.8903,-94.0367,4.0,7.481604106,155.3534972,9.88,'11111222,11111222,11111222' 
TABS,ioos:station:wmo:42046:1,2014-09-02T07:00:00Z,27.8903,-94.0367,4.0,8.1819802,158.6409793,9.52,'11111222,11111222,11111222' 
TABS,ioos:station:wmo:42046:1,2014-09-02T07:30:00Z,27.8903,-94.0367,4.0,8.033255878,147.2993438,9.88,'11111222,11111222,11111222' 
TABS,ioos:station:wmo:42046:1,2014-09-02T08:00:00Z,27.8903,-94.0367,4.0,7.368921224,156.7404173,11.13,'11111222,11111222,11111222' 
TABS,ioos:station:wmo:42046:1,2014-09-02T08:30:00Z,27.8903,-94.0367,4.0,7.754637322,158.198852,9.17,'11111222,11111222,11111222' 
TABS,ioos:station:wmo:42046:1,2014-09-02T09:00:00Z,27.8903,-94.0367,4.0,8.605631877,160.6599362,10.69,'11111222,11111222,11111222' 
TABS,ioos:station:wmo:42046:1,2014-09-02T09:30:00Z,27.8903,-94.0367,4.0,8.990239151,163.0568318,10.57,'11111222,11111222,11111222' 
TABS,ioos:station:wmo:42046:1,2014-09-02T10:00:00Z,27.8903,-94.0367,4.0,8.866436714,168.5508992,10.42,'11111222,11111222,11111222' 
TABS,ioos:station:wmo:42046:1,2014-09-02T10:30:00Z,27.8903,-94.0367,4.0,8.634865372,163.5170943,10.14,'11111222,11111222,11111222' 
TABS,ioos:station:wmo:42046:1,2014-09-02T11:00:00Z,27.8903,-94.0367,4.0,8.154140053,160.3653387,9.9,'11111222,11111222,11111222' 
TABS,ioos:station:wmo:42046:1,2014-09-02T11:30:00Z,27.8903,-94.0367,4.0,8.392883891,155.8783538,10.09,'11111222,11111222,11111222' 
TABS,ioos:station:wmo:42046:1,2014-09-02T12:00:00Z,27.8903,-94.0367,4.0,7.394403289,158.0837428,8.79,'11111222,11111222,11111222' 
TABS,ioos:station:wmo:42046:1,2014-09-02T12:30:00Z,27.8903,-94.0367,4.0,6.615088813,152.5442859,8.15,'11111222,11111222,11111222' 
TABS,ioos:station:wmo:42046:1,2014-09-02T13:00:00Z,27.8903,-94.0367,4.0,5.886340119,140.9300506,6.74,'11111222,11111222,11111222' 
TABS,ioos:station:wmo:42046:1,2014-09-02T13:30:00Z,27.8903,-94.0367,4.0,5.69380365,129.8703195,6.58,'11111222,11111222,11111222' 
TABS,ioos:station:wmo:42046:1,2014-09-02T14:00:00Z,27.8903,-94.0367,4.0,7.418908275,137.7318153,8.59,'11111222,11111222,11111222' 
TABS,ioos:station:wmo:42046:1,2014-09-02T14:30:00Z,27.8903,-94.0367,4.0,7.056004535,145.8597935,8.22,'11111222,11111222,11111222' 
TABS,ioos:station:wmo:42046:1,2014-09-02T15:00:00Z,27.8903,-94.0367,4.0,7.473526611,137.3862541,8.75,'11111222,11111222,11111222' 
TABS,ioos:station:wmo:42046:1,2014-09-02T15:30:00Z,27.8903,-94.0367,4.0,6.76701559,128.5808003,7.98,'11111222,11111222,11111222' 
TABS,ioos:station:wmo:42046:1,2014-09-02T16:00:00Z,27.8903,-94.0367,4.0,8.684445866,160.7724804,13.11,'11111222,11111222,11111222' 
TABS,ioos:station:wmo:42046:1,2014-09-02T16:30:00Z,27.8903,-94.0367,4.0,5.913078724,112.5755115,12.97,'11111222,11111222,11111222' 
TABS,ioos:station:wmo:42046:1,2014-09-02T17:00:00Z,27.8903,-94.0367,4.0,6.583836268,149.1111494,8.14,'11111222,11111222,11111222' 
TABS,ioos:station:wmo:42046:1,2014-09-02T17:30:00Z,27.8903,-94.0367,4.0,7.492422839,138.138146,8.67,'11111222,11111222,11111222' 
TABS,ioos:station:wmo:42046:1,2014-09-02T18:00:00Z,27.8903,-94.0367,4.0,7.248427416,134.2736782,8.3,'11111222,11111222,11111222' 
TABS,ioos:station:wmo:42046:1,2014-09-02T18:30:00Z,27.8903,-94.0367,4.0,8.203657721,134.0125576,9.42,'11111222,11111222,11111222' 
TABS,ioos:station:wmo:42046:1,2014-09-02T19:00:00Z,27.8903,-94.0367,4.0,8.361345585,137.8602945,9.57,'11111222,11111222,11111222' 
TABS,ioos:station:wmo:42046:1,2014-09-02T19:30:00Z,27.8903,-94.0367,4.0,8.061197182,130.8251897,9.31,'11111222,11111222,11111222' 
TABS,ioos:station:wmo:42046:1,2014-09-02T20:00:00Z,27.8903,-94.0367,4.0,8.111152816,132.5020901,9.75,'11111222,11111222,11111222' 
TABS,ioos:station:wmo:42046:1,2014-09-02T20:30:00Z,27.8903,-94.0367,4.0,8.464921736,134.1866478,10.09,'11111222,11111222,11111222' 
TABS,ioos:station:wmo:42046:1,2014-09-02T21:00:00Z,27.8903,-94.0367,4.0,8.088096191,129.7333384,9.48,'11111222,11111222,11111222' 
TABS,ioos:station:wmo:42046:1,2014-09-02T21:30:00Z,27.8903,-94.0367,4.0,8.336791949,135.0489125,9.93,'11111222,11111222,11111222' 
TABS,ioos:station:wmo:42046:1,2014-09-02T22:00:00Z,27.8903,-94.0367,4.0,7.792522056,135.4162477,9.0,'11111222,11111222,11111222' 
TABS,ioos:station:wmo:42046:1,2014-09-02T22:30:00Z,27.8903,-94.0367,4.0,7.942197429,136.0716143,8.8,'11111222,11111222,11111222' 
TABS,ioos:station:wmo:42046:1,2014-09-02T23:00:00Z,27.8903,-94.0367,4.0,7.154746676,130.0109648,8.34,'11111222,11111222,11111222' 
TABS,ioos:station:wmo:42046:1,2014-09-02T23:30:00Z,27.8903,-94.0367,4.0,7.145795967,130.9147085,8.18,'11111222,11111222,11111222' 
TABS,ioos:station:wmo:42046:1,2014-09-03T00:00:00Z,27.8903,-94.0367,4.0,6.924254473,129.6681693,8.18,'11111222,11111222,11111222' 
TABS,ioos:station:wmo:42046:1,2014-09-03T00:30:00Z,27.8903,-94.0367,4.0,6.732050208,127.0915157,7.92,'11111222,11111222,11111222' 
TABS,ioos:station:wmo:42046:1,2014-09-03T01:00:00Z,27.8903,-94.0367,4.0,7.105884885,123.2878708,8.05,'11111222,11111222,11111222' 
TABS,ioos:station:wmo:42046:1,2014-09-03T01:30:00Z,27.8903,-94.0367,4.0,5.928996542,118.5105522,6.91,'11111222,11111222,11111222' 
TABS,ioos:station:wmo:42046:1,2014-09-03T02:00:00Z,27.8903,-94.0367,4.0,5.837233934,114.0625157,6.78,'11111222,11111222,11111222' 
TABS,ioos:station:wmo:42046:1,2014-09-03T02:30:00Z,27.8903,-94.0367,4.0,6.700358199,119.7028072,8.17,'11111222,11111222,11111222' 
TABS,ioos:station:wmo:42046:1,2014-09-03T03:00:00Z,27.8903,-94.0367,4.0,6.174544518,121.7598267,7.49,'11111222,11111222,11111222' 
TABS,ioos:station:wmo:42046:1,2014-09-03T03:30:00Z,27.8903,-94.0367,4.0,7.408596358,119.7836024,8.25,'11111222,11111222,11111222' 
TABS,ioos:station:wmo:42046:1,2014-09-03T04:00:00Z,27.8903,-94.0367,4.0,7.129712477,122.3975756,8.32,'11111222,11111222,11111222' 
TABS,ioos:station:wmo:42046:1,2014-09-03T04:30:00Z,27.8903,-94.0367,4.0,8.373655116,129.6219227,9.72,'11111222,11111222,11111222' 
TABS,ioos:station:wmo:42046:1,2014-09-03T05:00:00Z,27.8903,-94.0367,4.0,7.716229649,132.2690162,9.21,'11111222,11111222,11111222' 
TABS,ioos:station:wmo:42046:1,2014-09-03T05:30:00Z,27.8903,-94.0367,4.0,7.737415589,127.9662408,9.15,'11111222,11111222,11111222' 
TABS,ioos:station:wmo:42046:1,2014-09-03T06:00:00Z,27.8903,-94.0367,4.0,7.272743636,126.0508785,8.75,'11111222,11111222,11111222' 
TABS,ioos:station:wmo:42046:1,2014-09-03T06:30:00Z,27.8903,-94.0367,4.0,8.142689973,127.6161173,9.39,'11111222,11111222,11111222' 
TABS,ioos:station:wmo:42046:1,2014-09-03T07:00:00Z,27.8903,-94.0367,4.0,7.627345541,132.9814535,8.95,'11111222,11111222,11111222' 
TABS,ioos:station:wmo:42046:1,2014-09-03T07:30:00Z,27.8903,-94.0367,4.0,8.054030047,137.4155721,9.51,'11111222,11111222,11111222' 
TABS,ioos:station:wmo:42046:1,2014-09-03T08:00:00Z,27.8903,-94.0367,4.0,7.491928991,140.8507982,8.92,'11111222,11111222,11111222' 
TABS,ioos:station:wmo:42046:1,2014-09-03T08:30:00Z,27.8903,-94.0367,4.0,7.440107526,133.9111761,8.69,'11111222,11111222,11111222' 
TABS,ioos:station:wmo:42046:1,2014-09-03T09:00:00Z,27.8903,-94.0367,4.0,6.536436338,140.5875466,8.54,'11111222,11111222,11111222' 
TABS,ioos:station:wmo:42046:1,2014-09-03T09:30:00Z,27.8903,-94.0367,4.0,6.535197013,133.7603438,7.66,'11111222,11111222,11111222' 
TABS,ioos:station:wmo:42046:1,2014-09-03T10:00:00Z,27.8903,-94.0367,4.0,6.278001274,130.4135395,7.32,'11111222,11111222,11111222' 
TABS,ioos:station:wmo:42046:1,2014-09-03T10:30:00Z,27.8903,-94.0367,4.0,6.413392238,122.6496863,7.17,'11111222,11111222,11111222' 
TABS,ioos:station:wmo:42046:1,2014-09-03T11:00:00Z,27.8903,-94.0367,4.0,6.47488996,118.5048808,7.57,'11111222,11111222,11111222' 
TABS,ioos:station:wmo:42046:1,2014-09-03T11:30:00Z,27.8903,-94.0367,4.0,6.212020605,114.3374523,7.24,'11111222,11111222,11111222' 
TABS,ioos:station:wmo:42046:1,2014-09-03T12:00:00Z,27.8903,-94.0367,4.0,6.012819638,111.8725584,7.26,'11111222,11111222,11111222' 
TABS,ioos:station:wmo:42046:1,2014-09-03T12:30:00Z,27.8903,-94.0367,4.0,6.287924936,111.2603128,7.51,'11111222,11111222,11111222' 
TABS,ioos:station:wmo:42046:1,2014-09-03T13:00:00Z,27.8903,-94.0367,4.0,6.163018741,117.2306416,7.08,'11111222,11111222,11111222' 
TABS,ioos:station:wmo:42046:1,2014-09-03T13:30:00Z,27.8903,-94.0367,4.0,5.678952368,110.1903544,6.82,'11111222,11111222,11111222' 
TABS,ioos:station:wmo:42046:1,2014-09-03T14:00:00Z,27.8903,-94.0367,4.0,6.316399291,109.6114866,7.21,'11111222,11111222,11111222' 
TABS,ioos:station:wmo:42046:1,2014-09-03T14:30:00Z,27.8903,-94.0367,4.0,6.422227028,114.370484,7.54,'11111222,11111222,11111222' 
TABS,ioos:station:wmo:42046:1,2014-09-03T15:00:00Z,27.8903,-94.0367,4.0,6.638350699,114.0943059,7.88,'11111222,11111222,11111222' 
TABS,ioos:station:wmo:42046:1,2014-09-03T15:30:00Z,27.8903,-94.0367,4.0,6.718965694,113.3221253,7.74,'11111222,11111222,11111222' 
TABS,ioos:station:wmo:42046:1,2014-09-03T16:00:00Z,27.8903,-94.0367,4.0,6.800264701,112.1146963,7.83,'11111222,11111222,11111222' 
TABS,ioos:station:wmo:42046:1,2014-09-03T16:30:00Z,27.8903,-94.0367,4.0,7.332830286,113.9787208,8.36,'11111222,11111222,11111222' 
TABS,ioos:station:wmo:42046:1,2014-09-03T17:00:00Z,27.8903,-94.0367,4.0,6.764236838,108.0871105,8.22,'11111222,11111222,11111222' 
TABS,ioos:station:wmo:42046:1,2014-09-03T17:30:00Z,27.8903,-94.0367,4.0,7.934179227,138.4747149,12.72,'11111222,11111222,11111222' 
TABS,ioos:station:wmo:42046:1,2014-09-03T18:00:00Z,27.8903,-94.0367,4.0,7.510659092,129.9231077,9.48,'11111222,11111222,11111222' 
TABS,ioos:station:wmo:42046:1,2014-09-03T18:30:00Z,27.8903,-94.0367,4.0,4.823297627,110.7649672,6.73,'11111222,11111222,11111222' 
TABS,ioos:station:wmo:42046:1,2014-09-03T19:00:00Z,27.8903,-94.0367,4.0,6.483964836,112.9668983,7.71,'11111222,11111222,11111222' 
TABS,ioos:station:wmo:42046:1,2014-09-03T19:30:00Z,27.8903,-94.0367,4.0,6.544325787,113.3139162,7.48,'11111222,11111222,11111222' 
TABS,ioos:station:wmo:42046:1,2014-09-03T20:00:00Z,27.8903,-94.0367,4.0,6.523955855,110.268606,7.72,'11111222,11111222,11111222' 
TABS,ioos:station:wmo:42046:1,2014-09-03T20:30:00Z,27.8903,-94.0367,4.0,6.405973775,109.9911222,7.4,'11111222,11111222,11111222' 
TABS,ioos:station:wmo:42046:1,2014-09-03T21:00:00Z,27.8903,-94.0367,4.0,5.955980188,107.1879818,7.04,'11111222,11111222,11111222' 
TABS,ioos:station:wmo:42046:1,2014-09-03T21:30:00Z,27.8903,-94.0367,4.0,6.518289653,109.3526458,7.56,'11111222,11111222,11111222' 
TABS,ioos:station:wmo:42046:1,2014-09-03T22:00:00Z,27.8903,-94.0367,4.0,6.212020605,114.3374523,7.06,'11111222,11111222,11111222' 
TABS,ioos:station:wmo:42046:1,2014-09-03T22:30:00Z,27.8903,-94.0367,4.0,5.992879108,118.8320902,6.87,'11111222,11111222,11111222' 
TABS,ioos:station:wmo:42046:1,2014-09-03T23:00:00Z,27.8903,-94.0367,4.0,6.404880951,114.244425,7.47,'11111222,11111222,11111222' 
TABS,ioos:station:wmo:42046:1,2014-09-03T23:30:00Z,27.8903,-94.0367,4.0,6.630897375,114.7875734,7.58,'11111222,11111222,11111222' 
TABS,ioos:station:wmo:42046:1,2014-09-04T00:00:00Z,27.8903,-94.0367,4.0,6.116804721,111.7843855,6.98,'11111222,11111222,11111222' 
TABS,ioos:station:wmo:42046:1,2014-09-04T00:30:00Z,27.8903,-94.0367,4.0,6.251735759,114.4746578,7.42,'11111222,11111222,11111222' 
TABS,ioos:station:wmo:42046:1,2014-09-04T01:00:00Z,27.8903,-94.0367,4.0,6.241233852,111.9211097,7.24,'11111222,11111222,11111222' 
TABS,ioos:station:wmo:42046:1,2014-09-04T01:30:00Z,27.8903,-94.0367,4.0,6.019734213,104.0366316,7.38,'11111222,11111222,11111222' 
TABS,ioos:station:wmo:42046:1,2014-09-04T02:00:00Z,27.8903,-94.0367,4.0,6.423153431,107.6736864,7.57,'11111222,11111222,11111222' 
TABS,ioos:station:wmo:42046:1,2014-09-04T02:30:00Z,27.8903,-94.0367,4.0,6.27764287,106.472333,7.32,'11111222,11111222,11111222' 
TABS,ioos:station:wmo:42046:1,2014-09-04T03:00:00Z,27.8903,-94.0367,4.0,6.790530171,107.3946725,8.08,'11111222,11111222,11111222' 
TABS,ioos:station:wmo:42046:1,2014-09-04T03:30:00Z,27.8903,-94.0367,4.0,6.463698632,108.4913889,7.55,'11111222,11111222,11111222' 
TABS,ioos:station:wmo:42046:1,2014-09-04T04:00:00Z,27.8903,-94.0367,4.0,7.062365043,112.3893292,8.07,'11111222,11111222,11111222' 
TABS,ioos:station:wmo:42046:1,2014-09-04T04:30:00Z,27.8903,-94.0367,4.0,6.772835448,115.1654648,8.01,'11111222,11111222,11111222' 
TABS,ioos:station:wmo:42046:1,2014-09-04T05:00:00Z,27.8903,-94.0367,4.0,6.746925226,112.5745062,8.05,'11111222,11111222,11111222' 
TABS,ioos:station:wmo:42046:1,2014-09-04T05:30:00Z,27.8903,-94.0367,4.0,6.523955855,110.268606,7.96,'11111222,11111222,11111222' 
TABS,ioos:station:wmo:42046:1,2014-09-04T06:00:00Z,27.8903,-94.0367,4.0,6.358144383,113.7432613,7.65,'11111222,11111222,11111222' 
TABS,ioos:station:wmo:42046:1,2014-09-04T06:30:00Z,27.8903,-94.0367,4.0,6.4606656,113.8277866,7.6,'11111222,11111222,11111222' 
TABS,ioos:station:wmo:42046:1,2014-09-04T07:00:00Z,27.8903,-94.0367,4.0,6.789359322,118.7926612,7.98,'11111222,11111222,11111222' 
TABS,ioos:station:wmo:42046:1,2014-09-04T07:30:00Z,27.8903,-94.0367,4.0,6.668882965,118.8713713,8.23,'11111222,11111222,11111222' 
TABS,ioos:station:wmo:42046:1,2014-09-04T08:00:00Z,27.8903,-94.0367,4.0,6.628091731,115.9468575,8.06,'11111222,11111222,11111222' 
TABS,ioos:station:wmo:42046:1,2014-09-04T08:30:00Z,27.8903,-94.0367,4.0,6.052478831,113.9820774,6.93,'11111222,11111222,11111222' 
TABS,ioos:station:wmo:42046:1,2014-09-04T09:00:00Z,27.8903,-94.0367,4.0,6.024026892,116.3101972,7.06,'11111222,11111222,11111222' 
TABS,ioos:station:wmo:42046:1,2014-09-04T09:30:00Z,27.8903,-94.0367,4.0,6.189612266,121.4562417,7.31,'11111222,11111222,11111222' 
TABS,ioos:station:wmo:42046:1,2014-09-04T10:00:00Z,27.8903,-94.0367,4.0,6.552633059,117.5430565,7.52,'11111222,11111222,11111222' 
TABS,ioos:station:wmo:42046:1,2014-09-04T10:30:00Z,27.8903,-94.0367,4.0,6.449441836,122.6555041,7.43,'11111222,11111222,11111222' 
TABS,ioos:station:wmo:42046:1,2014-09-04T11:00:00Z,27.8903,-94.0367,4.0,6.744360607,117.1732985,8.08,'11111222,11111222,11111222' 
TABS,ioos:station:wmo:42046:1,2014-09-04T11:30:00Z,27.8903,-94.0367,4.0,6.663482573,116.56541,7.58,'11111222,11111222,11111222' 
TABS,ioos:station:wmo:42046:1,2014-09-04T12:00:00Z,27.8903,-94.0367,4.0,6.778215104,127.3266943,8.23,'11111222,11111222,11111222' 
TABS,ioos:station:wmo:42046:1,2014-09-04T12:30:00Z,27.8903,-94.0367,4.0,5.654378834,125.2081923,6.93,'11111222,11111222,11111222' 
TABS,ioos:station:wmo:42046:1,2014-09-04T13:00:00Z,27.8903,-94.0367,4.0,5.814232537,127.3826668,7.08,'11111222,11111222,11111222' 
TABS,ioos:station:wmo:42046:1,2014-09-04T13:30:00Z,27.8903,-94.0367,4.0,6.156143273,126.4793324,6.92,'11111222,11111222,11111222' 
TABS,ioos:station:wmo:42046:1,2014-09-04T14:00:00Z,27.8903,-94.0367,4.0,5.466571137,123.6613403,7.59,'11111222,11111222,11111222' 
TABS,ioos:station:wmo:42046:1,2014-09-04T14:30:00Z,27.8903,-94.0367,4.0,5.86318173,123.6633067,6.98,'11111222,11111222,11111222' 
TABS,ioos:station:wmo:42046:1,2014-09-04T15:00:00Z,27.8903,-94.0367,4.0,5.284865183,124.9834776,6.53,'11111222,11111222,11111222' 
TABS,ioos:station:wmo:42046:1,2014-09-04T15:30:00Z,27.8903,-94.0367,4.0,9.025436278,146.8912578,13.89,'11111222,11111222,11111222' 
TABS,ioos:station:wmo:42046:1,2014-09-04T16:00:00Z,27.8903,-94.0367,4.0,0.612698947,153.8534304,1.52,'11111222,11111222,11111222' 
TABS,ioos:station:wmo:42046:1,2014-09-04T16:30:00Z,27.8903,-94.0367,4.0,4.181506905,100.6116342,5.15,'11111222,11111222,11111222' 
TABS,ioos:station:wmo:42046:1,2014-09-04T17:00:00Z,27.8903,-94.0367,4.0,5.019103506,122.138834,6.13,'11111222,11111222,11111222' 
TABS,ioos:station:wmo:42046:1,2014-09-04T17:30:00Z,27.8903,-94.0367,4.0,4.313351365,124.6114822,5.21,'11111222,11111222,11111222' 
TABS,ioos:station:wmo:42046:1,2014-09-04T18:00:00Z,27.8903,-94.0367,4.0,5.426398437,121.4349183,6.7,'11111222,11111222,11111222' 
TABS,ioos:station:wmo:42046:1,2014-09-04T18:30:00Z,27.8903,-94.0367,4.0,5.01461863,120.964105,5.77,'11111222,11111222,11111222' 